Location: Newark
(7.0858°N, 171.3717°E)
Time: 05:54:54
(UTC+00:00)

Courier 1B Rocket - All Passes

Search period start: 27 November 2020 00:00
Search period end: 07 December 2020 00:00
Orbit: 920 x 1202 km, 28.2° (Epoch: 26 November)

Date Brightness Start Highest point End Pass type
(mag) Time Alt. Az. Time Alt. Az. Time Alt. Az.
27 Nov - 01:01:10 10° NW 01:07:44 48° NNE 01:13:55 10° E daylight
27 Nov - 02:54:58 10° WNW 03:01:13 47° SSW 03:07:12 10° SE daylight
27 Nov - 04:52:59 10° SW 04:54:46 11° SSW 04:56:32 10° SSW daylight
27 Nov - 12:35:11 10° S 12:38:14 13° SSE 12:41:21 10° SE night (unlit)
27 Nov - 14:25:03 10° SW 14:32:11 46° SSE 14:39:35 10° ENE visible
27 Nov - 16:18:28 10° WSW 16:26:04 59° NNW 16:33:46 10° NE visible
27 Nov - 18:14:35 10° WNW 18:20:35 24° NNW 18:26:32 10° NNE daylight
27 Nov - 20:12:26 10° NNW 20:16:01 14° N 20:19:32 10° NNE daylight
27 Nov - 22:07:27 10° NNW 22:11:41 16° N 22:15:46 10° NE daylight
28 Nov - 00:00:10 10° NW 00:06:29 34° NNE 00:12:24 10° E daylight
28 Nov - 01:53:28 10° WNW 02:00:12 75° SSW 02:06:33 10° SE daylight
28 Nov - 03:49:18 10° WSW 03:53:35 19° SSW 03:57:50 10° SSE daylight
28 Nov - 13:24:35 10° SSW 13:30:54 31° SSE 13:37:29 10° E night (unlit)
28 Nov - 15:17:04 10° WSW 15:24:40 83° NNW 15:32:32 10° ENE visible
28 Nov - 17:12:14 10° W 17:18:56 31° NNW 17:25:39 10° NE visible
28 Nov - 19:09:46 10° NW 19:14:07 16° N 19:18:24 10° NNE daylight
28 Nov - 21:06:06 10° NNW 21:09:52 14° N 21:13:32 10° NE daylight
28 Nov - 22:59:10 10° NW 23:05:03 26° NNE 23:10:36 10° ENE daylight
29 Nov - 00:52:10 10° NW 00:59:08 74° NNE 01:05:37 10° ESE daylight
29 Nov - 02:46:53 10° W 02:52:32 30° SSW 02:57:57 10° SSE daylight
29 Nov - 12:24:36 10° SSW 12:29:37 20° SSE 12:34:49 10° ESE night (unlit)
29 Nov - 14:15:59 10° SW 14:23:20 70° SSE 14:31:05 10° ENE visible
29 Nov - 16:10:13 10° W 16:17:21 41° NNW 16:24:40 10° NE visible
29 Nov - 18:07:04 10° NW 18:12:15 19° NNW 18:17:25 10° NNE visible
29 Nov - 20:04:21 10° NNW 20:07:57 14° N 20:11:29 10° NNE daylight
29 Nov - 21:58:09 10° NNW 22:03:28 20° NNE 22:08:32 10° ENE daylight
29 Nov - 23:50:59 10° NW 23:57:56 51° NNE 00:04:24 10° E daylight
30 Nov - 01:44:58 10° WNW 01:51:29 47° SSW 01:57:38 10° SE daylight
30 Nov - 03:43:15 10° SW 03:45:03 11° SSW 03:46:50 10° SSW daylight
30 Nov - 11:25:39 10° S 11:28:17 12° SSE 11:30:57 10° SE night (unlit)
30 Nov - 13:15:15 10° SW 13:22:05 46° SSE 13:29:21 10° ENE night (unlit)
30 Nov - 15:08:33 10° WSW 15:15:54 58° NNW 15:23:34 10° NE visible
30 Nov - 17:04:32 10° WNW 17:10:28 23° NNW 17:16:27 10° NNE visible
30 Nov - 19:02:08 10° NW 19:05:59 14° N 19:09:48 10° NNE daylight
30 Nov - 20:57:01 10° NNW 21:01:43 17° N 21:06:16 10° NE daylight
30 Nov - 22:49:54 10° NW 22:56:36 36° NNE 23:02:53 10° E daylight
01 Dec - 00:43:22 10° WNW 00:50:26 73° SSW 00:57:00 10° SE daylight
01 Dec - 02:39:23 10° WSW 02:43:52 19° SSW 02:48:13 10° SSE daylight
01 Dec - 12:14:53 10° SSW 12:20:53 30° SSE 12:27:14 10° E night (unlit)
01 Dec - 14:07:14 10° WSW 14:14:32 81° NNW 14:22:18 10° ENE night (unlit)
01 Dec - 16:02:18 10° W 16:08:48 30° NNW 16:15:29 10° NE visible
01 Dec - 17:59:38 10° NW 18:04:03 16° N 18:08:27 10° NNE visible
01 Dec - 19:55:42 10° NNW 19:59:51 15° N 20:03:56 10° NE daylight
01 Dec - 21:48:50 10° NW 21:55:07 28° NNE 22:01:04 10° ENE daylight
01 Dec - 23:41:58 10° WNW 23:49:17 77° NNE 23:56:04 10° ESE daylight
02 Dec - 01:36:51 10° W 01:42:46 30° SSW 01:48:23 10° SSE daylight
02 Dec - 11:15:00 10° SSW 11:19:41 19° SSE 11:24:34 10° ESE night (unlit)
02 Dec - 13:06:14 10° SW 13:13:16 70° SSE 13:20:49 10° ENE night (unlit)
02 Dec - 15:00:22 10° W 15:07:14 40° NNW 15:14:26 10° NE visible
02 Dec - 16:57:05 10° NW 17:02:09 18° NNW 17:07:18 10° NNE visible
02 Dec - 18:54:04 10° NNW 18:57:55 14° N 19:01:43 10° NNE daylight
02 Dec - 20:47:47 10° NNW 20:53:28 22° NNE 20:58:57 10° ENE daylight
02 Dec - 22:40:43 10° NW 22:48:01 53° NNE 22:54:50 10° ESE daylight
03 Dec - 00:34:50 10° WNW 00:41:41 47° SSW 00:48:04 10° SE daylight
03 Dec - 02:33:10 10° SW 02:35:18 12° SSW 02:37:24 10° S daylight
03 Dec - 10:16:17 10° S 10:18:25 12° SSE 10:20:35 10° SE visible
03 Dec - 12:05:34 10° SW 12:12:06 46° SSE 12:19:05 10° ENE night (unlit)
03 Dec - 13:58:48 10° WSW 14:05:48 55° NNW 14:13:17 10° NE night (unlit)
03 Dec - 15:54:41 10° WNW 16:00:22 23° NNW 16:06:14 10° NNE visible
03 Dec - 17:52:01 10° NNW 17:55:55 14° N 17:59:50 10° NNE visible
03 Dec - 19:46:40 10° NNW 19:51:41 18° NNE 19:56:36 10° NE daylight
03 Dec - 21:39:35 10° NW 21:46:37 38° NNE 21:53:17 10° E daylight
03 Dec - 23:33:09 10° WNW 23:40:32 72° SSW 23:47:25 10° SE daylight
04 Dec - 01:29:17 10° WSW 01:34:04 19° SSW 01:38:40 10° SSE daylight
04 Dec - 11:05:16 10° SSW 11:10:58 30° SSE 11:17:01 10° E night (unlit)
04 Dec - 12:57:33 10° WSW 13:04:30 79° NNW 13:12:01 10° ENE night (unlit)
04 Dec - 14:52:32 10° WNW 14:58:43 29° NNW 15:05:12 10° NE visible
04 Dec - 16:49:42 10° NW 16:53:58 15° N 16:58:17 10° NNE visible
04 Dec - 18:45:27 10° NNW 18:49:48 16° N 18:54:07 10° NE daylight
04 Dec - 20:38:31 10° NW 20:45:04 29° NNE 20:51:23 10° ENE daylight
04 Dec - 22:31:41 10° WNW 22:39:19 79° NNE 22:46:27 10° ESE daylight
05 Dec - 00:26:40 10° W 00:32:54 31° SSW 00:38:47 10° SSE daylight
05 Dec - 10:05:26 10° SSW 10:09:50 19° SSE 10:14:24 10° ESE visible
05 Dec - 11:56:36 10° SW 12:03:19 71° SSE 12:10:34 10° ENE night (unlit)
05 Dec - 13:50:41 10° W 13:57:12 38° NNW 14:04:07 10° NE night (unlit)
05 Dec - 15:47:17 10° NW 15:52:06 18° NNW 15:57:01 10° NNE visible
05 Dec - 17:43:58 10° NNW 17:47:50 14° N 17:51:43 10° NNE visible
05 Dec - 19:37:29 10° NNW 19:43:24 23° NNE 19:49:11 10° ENE daylight
05 Dec - 21:30:25 10° NW 21:37:59 56° NNE 21:45:09 10° ESE daylight
05 Dec - 23:24:36 10° WNW 23:31:45 47° SSW 23:38:26 10° SE daylight
06 Dec - 01:22:53 10° SW 01:25:28 12° SSW 01:28:00 10° S daylight
06 Dec - 09:06:55 10° SSE 09:08:37 11° SSE 09:10:20 10° SE visible
06 Dec - 10:55:59 10° SW 11:02:13 46° SSE 11:08:54 10° ENE night (unlit)
06 Dec - 12:49:09 10° WSW 12:55:49 53° NNW 13:02:59 10° NE night (unlit)
06 Dec - 14:45:00 10° WNW 14:50:20 21° NNW 14:55:54 10° NNE visible
06 Dec - 16:42:08 10° NNW 16:45:52 14° N 16:49:38 10° NNE visible
06 Dec - 18:36:29 10° NNW 18:41:35 18° NNE 18:46:42 10° NE daylight
06 Dec - 20:29:17 10° NW 20:36:31 40° NNE 20:43:30 10° E daylight
06 Dec - 22:22:52 10° WNW 22:30:32 71° SSW 22:37:44 10° SE daylight
